Theta_e
348 346 347 346 346 345 346 349 349 349 349 348 343 341 338 332 331 330 329 328 333 340 345 342 345 352 354 355 356 357 356 359 360 353 353 351 350 350 349 350 349 349 350 353 354 355 357 358 359 359 359 357 355 354 352 349 346 345 343 340 338 335 336 334 333 334 334 333 333 333 333 334 336 337
346 349 349 347 346 346 346 345 344 348 346 346 347 345 343 339 336 332 330 329 333 338 344 347 346 349 350 352 354 357 359 360 360 359 351 349 350 347 348 349 349 348 348 349 350 353 355 356 356 355 353 352 351 352 351 349 347 346 343 340 337 334 334 332 332 333 334 333 333 332 333 334 334 334
348 346 346 346 346 346 345 344 346 346 350 346 346 347 345 342 339 337 332 331 334 344 341 343 348 348 348 352 353 352 353 357 358 357 355 353 352 350 351 351 350 348 346 345 345 346 348 349 349 349 349 349 349 350 350 349 347 345 343 340 336 332 332 331 331 333 334 333 332 331 332 332 333 332
350 347 346 347 347 347 345 345 346 346 347 348 345 345 345 343 342 343 334 332 336 340 345 345 347 350 351 353 351 349 354 358 358 355 353 353 354 353 353 353 350 348 346 344 343 343 342 342 344 346 348 348 349 352 352 349 348 345 344 340 334 330 330 330 330 331 332 332 331 331 331 331 332 331
350 349 347 347 347 346 346 347 347 347 348 348 347 345 344 344 344 340 338 335 338 338 340 344 347 350 351 350 350 352 353 354 355 357 356 355 354 354 354 355 352 349 346 343 341 341 340 340 341 343 346 347 348 350 351 347 346 346 344 339 332 329 329 329 329 330 331 331 330 330 330 330 331 331
352 350 347 347 348 347 347 346 346 346 346 344 345 345 347 343 344 344 340 336 334 337 338 340 343 345 352 349 349 351 352 352 356 355 355 357 354 355 354 354 355 350 346 343 340 339 339 338 339 341 343 345 347 347 346 344 341 340 339 335 329 327 328 328 328 329 330 329 329 329 329 330 331 331
352 350 350 350 351 352 347 347 346 345 344 345 344 344 344 343 344 344 343 339 336 337 339 338 339 342 346 348 348 348 352 355 354 353 354 355 357 357 356 355 355 350 346 343 341 339 338 338 338 338 340 341 341 342 340 337 335 334 332 330 330 328 327 327 328 328 327 327 326 327 328 328 330 330
353 352 350 352 352 351 349 348 346 345 344 343 343 343 342 343 344 344 344 344 342 338 338 339 341 342 342 346 348 351 354 354 354 353 354 353 354 355 357 356 355 352 347 344 342 340 338 337 336 336 336 336 334 333 333 332 331 330 329 328 328 326 325 324 325 326 325 324 323 324 325 327 328 328
354 353 352 352 351 350 350 350 347 346 344 345 343 342 343 343 345 346 345 344 343 341 340 340 341 343 344 347 348 350 352 352 350 348 349 352 354 355 357 357 358 350 346 345 342 340 339 338 337 336 335 334 333 332 331 330 329 329 328 327 327 325 324 323 322 323 323 322 322 321 322 325 326 326
355 355 354 354 353 351 350 350 349 346 346 346 345 344 343 343 342 343 343 343 343 342 342 341 341 340 345 344 345 347 349 350 350 350 351 351 352 351 353 355 357 357 357 356 354 344 340 338 334 334 335 334 332 332 331 330 329 327 325 323 323 324 324 323 323 322 321 321 321 321 321 323 324 324
355 355 355 354 354 352 352 351 350 348 347 348 347 348 346 345 342 342 342 343 342 343 343 342 343 343 343 345 345 345 347 347 349 348 349 349 348 347 346 350 352 353 353 351 349 349 348 346 344 335 331 330 331 332 331 330 329 327 324 322 321 321 321 320 321 321 320 320 320 319 318 319 322 324
355 355 355 356 355 354 354 353 352 351 350 349 348 349 348 346 344 343 343 343 343 342 342 341 342 339 340 339 344 347 344 345 343 346 348 346 347 349 344 345 348 351 351 351 354 350 346 343 341 334 333 334 334 334 333 333 334 332 329 325 326 324 321 320 320 320 318 318 316 316 316 316 319 321
355 355 356 356 356 358 363 362 360 358 357 352 349 349 348 347 345 344 343 343 342 342 341 342 341 339 342 344 343 344 341 341 342 341 342 343 346 345 346 349 350 351 350 351 352 353 353 352 350 348 345 344 339 337 335 336 337 335 330 327 327 326 324 321 320 319 319 318 317 315 315 315 317 320
353 354 355 357 364 363 363 361 356 348 353 359 356 352 349 348 347 346 344 343 342 342 341 341 341 340 341 342 342 342 342 344 342 345 343 342 346 342 344 345 346 347 347 345 348 350 351 350 349 346 346 347 346 344 339 337 337 335 331 328 327 326 325 322 320 319 318 317 317 316 314 315 316 316
351 352 353 354 359 364 363 358 351 346 343 343 345 347 358 360 351 347 345 345 344 342 342 343 341 340 341 343 344 343 345 345 345 345 344 345 343 342 337 340 346 346 348 343 338 346 344 345 346 347 346 347 346 343 342 339 336 332 330 329 327 326 325 324 323 320 318 317 317 316 315 315 316 316
351 351 351 352 353 353 354 354 354 353 348 341 340 340 343 343 348 353 353 349 345 343 343 343 343 343 342 344 344 345 344 346 344 346 345 344 343 342 339 336 340 346 354 344 339 346 348 344 346 346 348 349 350 351 342 337 334 332 330 329 328 327 326 325 324 323 321 319 319 318 318 317 318 317
349 349 349 349 350 352 361 361 355 351 351 347 342 339 340 341 342 337 337 343 352 349 345 344 344 344 345 344 346 348 345 345 345 343 342 342 342 342 342 343 342 348 353 345 339 344 349 343 347 346 349 350 352 354 345 340 336 334 331 330 329 327 326 325 324 323 322 320 319 318 318 317 316 315
349 348 348 347 348 348 349 349 348 348 347 347 346 345 345 345 349 346 338 336 338 347 349 348 346 348 348 347 349 352 349 347 347 345 345 345 342 344 345 347 347 349 349 349 344 344 348 342 344 344 347 350 351 351 344 338 336 334 332 330 328 326 325 324 323 322 322 320 319 317 316 315 314 314
348 348 348 347 347 347 346 347 349 345 344 343 343 343 343 344 344 344 345 345 345 345 346 348 349 351 351 351 352 353 352 352 352 351 350 349 349 350 348 347 350 351 352 349 343 340 343 339 339 345 347 349 350 351 341 336 334 333 331 329 328 326 324 323 323 322 321 320 319 317 315 313 312 312
350 349 349 348 347 346 346 349 342 350 348 343 341 341 341 342 343 344 348 338 341 348 347 348 349 351 353 345 353 354 353 353 353 353 350 346 346 346 343 341 344 343 342 347 344 339 341 344 341 343 346 346 349 351 350 340 335 330 328 328 327 325 322 321 321 321 320 319 318 317 314 311 311 310
349 350 350 348 348 347 346 344 332 331 343 343 343 342 342 342 342 343 345 336 329 329 329 329 331 331 331 330 328 326 326 336 343 342 339 341 342 339 337 339 339 341 342 338 346 342 338 343 339 343 346 346 348 349 350 349 335 326 324 323 324 322 321 320 319 319 319 319 318 317 315 311 310 311
344 347 356 359 349 347 347 337 330 329 337 339 340 340 340 340 340 342 344 345 345 328 324 324 325 326 327 328 328 328 328 328 334 338 338 342 340 339 338 337 339 342 340 342 348 337 341 344 340 340 341 338 341 345 348 344 331 325 321 319 320 320 320 319 318 318 318 318 317 316 314 311 310 315
341 342 349 353 354 352 347 332 328 326 334 339 340 340 339 339 339 341 341 341 343 344 345 346 343 341 336 339 338 341 333 332 342 339 340 342 340 339 340 340 340 339 340 341 347 340 335 336 337 338 335 332 336 336 336 333 330 325 328 327 324 319 319 319 317 316 316 317 316 316 313 311 311 317
342 343 343 346 335 327 324 322 320 320 321 336 339 339 338 338 338 341 341 343 343 344 347 348 349 350 351 351 349 348 348 348 349 342 341 341 342 341 341 342 341 339 339 333 347 340 336 335 336 337 340 335 331 329 328 330 326 327 325 325 324 322 321 320 317 315 313 314 314 314 313 310 312 317
342 343 344 345 338 316 312 311 310 310 312 318 332 337 339 340 341 340 338 341 350 343 342 343 343 344 346 349 351 352 352 352 351 349 344 345 344 343 343 343 342 342 344 344 343 341 340 336 336 332 334 335 335 336 333 327 328 326 327 325 326 325 322 321 320 319 313 311 311 311 311 311 311 317
343 345 346 347 329 314 312 310 308 308 311 313 327 332 322 321 322 332 339 338 337 337 338 339 340 341 342 342 343 345 348 350 351 352 351 348 347 347 347 347 345 342 343 345 336 345 341 339 340 339 336 333 337 335 336 337 337 327 324 323 324 325 322 323 323 320 318 317 316 312 313 311 312 313
338 341 342 345 339 318 311 309 308 309 310 318 328 318 315 316 318 328 333 334 335 335 337 338 338 340 341 342 342 343 344 346 348 349 349 349 348 347 347 348 348 347 348 347 345 344 342 339 339 339 339 338 337 337 335 335 337 324 324 323 323 323 322 321 321 322 320 319 319 314 311 310 311 312
335 337 338 336 318 309 305 307 309 310 313 321 312 310 313 315 320 329 334 333 335 336 335 336 337 339 341 342 343 344 345 346 346 348 349 350 350 348 346 346 346 346 346 346 346 345 343 342 342 342 341 340 339 338 338 341 339 337 338 329 323 323 322 321 321 325 325 320 319 319 318 317 316 312
334 326 316 311 310 310 309 309 311 316 322 317 314 312 313 320 330 332 334 336 337 337 338 339 340 341 343 344 346 347 348 348 348 346 347 349 350 351 351 349 348 347 347 347 347 346 346 344 344 344 343 341 340 340 340 340 342 340 334 335 335 330 324 322 321 320 322 320 319 319 319 320 320 319
319 316 315 315 315 316 318 328 335 338 338 327 323 321 324 330 332 335 336 337 337 337 339 340 341 343 345 346 348 348 348 347 346 346 346 346 346 347 347 348 349 351 352 352 351 350 349 348 347 346 345 344 343 342 342 342 341 343 341 337 340 338 330 324 321 321 323 321 320 320 321 321 321 321
321 322 325 326 321 320 321 324 327 329 332 333 335 336 336 336 336 337 337 337 338 339 339 340 341 343 344 345 344 344 344 344 345 346 346 346 346 346 345 344 344 346 348 350 351 352 352 351 351 349 346 345 345 344 344 344 342 343 344 342 338 338 334 323 324 322 321 321 321 321 321 321 322 330
318 322 325 326 335 338 339 338 338 338 338 339 338 338 338 338 339 341 342 343 340 339 340 340 341 341 341 341 341 342 342 343 344 345 345 345 345 345 344 342 342 344 346 347 348 349 354 352 351 351 349 348 345 346 346 344 343 344 344 344 342 342 343 334 329 326 324 321 320 320 321 321 321 322
319 323 329 332 333 334 334 335 336 337 338 338 339 340 341 341 341 340 339 338 339 340 339 339 339 339 340 340 341 341 341 341 343 344 344 345 345 345 344 343 343 343 343 344 346 347 346 348 351 351 350 350 350 348 346 343 344 344 343 344 344 344 344 343 337 333 325 321 321 322 321 322 323 323
316 326 328 330 331 332 333 334 335 336 337 338 339 340 336 340 342 342 341 341 341 340 339 339 339 339 339 340 340 340 340 341 342 342 338 344 344 343 342 342 343 344 343 343 345 346 346 345 344 346 348 349 350 350 348 345 344 344 344 345 344 344 346 345 342 337 327 327 327 324 324 324 325 325
325 326 326 327 328 329 330 330 330 330 332 334 336 337 339 342 342 340 341 342 340 340 340 339 340 340 340 340 340 340 340 340 341 342 341 343 343 343 343 342 343 343 344 343 344 346 344 343 342 342 342 343 343 346 346 349 346 345 345 345 345 345 345 345 343 339 333 330 329 330 330 329 329 329
321 321 321 321 321 321 322 323 324 324 325 325 327 329 330 331 333 334 336 337 341 342 342 342 341 342 342 342 341 341 340 338 340 341 342 342 342 342 342 343 342 343 343 344 344 346 343 343 340 340 339 339 339 339 342 340 344 349 345 344 346 346 346 346 342 340 335 333 332 332 333 335 336 336
316 316 316 316 317 316 316 317 318 319 320 320 321 324 327 328 328 330 330 332 336 336 337 339 341 342 343 342 341 339 340 340 341 342 342 343 343 342 342 342 342 342 342 343 345 345 344 343 341 341 340 339 338 337 340 343 334 335 349 346 346 347 347 345 342 338 336 336 335 333 335 337 338 340
313 313 312 312 311 311 312 313 315 315 315 316 317 321 323 324 326 326 327 329 330 331 332 334 336 338 341 341 342 343 343 344 343 343 342 343 342 342 343 343 343 344 344 345 345 345 344 344 343 342 341 339 338 338 339 344 343 341 332 344 346 348 346 344 340 339 338 334 335 336 335 335 338 341
312 311 310 308 308 308 309 310 311 310 311 312 315 317 318 319 320 321 323 324 325 326 330 332 332 332 335 340 341 342 343 343 343 343 343 344 343 343 343 343 342 343 343 343 344 345 344 343 343 343 342 341 340 341 342 341 342 347 337 323 341 348 347 346 345 343 340 336 333 335 335 337 332 324
311 310 309 308 307 307 308 308 308 308 309 311 311 312 313 314 316 317 319 319 321 323 326 328 329 329 334 335 336 338 340 342 342 343 343 342 342 342 342 342 342 342 341 341 341 342 343 343 343 344 344 345 347 348 347 344 344 345 344 338 319 335 349 348 347 348 345 344 339 331 332 332 331 330
309 307 306 307 306 307 306 306 306 307 308 309 309 309 311 312 312 313 314 316 319 320 321 323 326 329 331 330 328 326 326 328 332 337 340 341 339 339 337 333 339 340 339 339 340 340 342 344 346 335 346 348 347 345 343 341 339 342 343 345 328 319 324 334 351 350 348 348 342 339 337 336 334 330
307 305 305 305 305 305 305 305 306 306 306 307 307 307 308 309 310 311 313 314 315 317 318 320 322 320 318 318 318 317 318 319 322 327 330 334 337 339 337 337 339 340 340 339 340 341 344 341 345 344 342 342 341 338 336 337 337 339 341 343 345 329 324 321 322 330 350 350 343 340 339 339 330 332
307 305 304 305 305 305 304 305 305 306 306 306 306 306 306 307 308 309 309 311 312 314 314 317 315 313 312 312 312 312 313 314 317 320 321 324 328 332 336 339 341 342 342 342 344 344 345 345 342 342 341 341 340 339 336 337 338 339 340 341 342 343 343 328 323 321 322 325 330 341 348 342 328 327
305 304 303 303 303 303 303 303 304 305 305 305 305 305 305 306 305 306 307 309 310 311 313 313 310 309 308 308 308 308 309 311 313 314 316 319 324 329 333 335 336 338 340 340 341 342 343 344 344 343 341 340 341 339 337 338 337 339 340 341 342 341 341 341 341 328 323 322 320 320 322 325 331 335
306 304 303 302 302 302 303 303 304 304 304 304 303 303 304 303 304 304 304 305 307 308 310 308 306 305 304 304 304 303 305 307 309 313 315 318 322 325 328 332 333 335 336 337 337 338 340 341 342 342 341 341 341 340 338 337 337 338 339 340 340 341 342 337 338 339 340 341 333 323 321 322 324 324
Wind_Speed
3 3 3 2 3 4 3 3 3 1 0 1 2 2 1 3 2 2 3 2 1 3 1 1 2 1 2 3 4 4 4 5 4 3 3 4 4 7 9 10 10 10 10 10 10 10 9 8 9 10 10 9 9 9 7 6 6 4 4 5 5 6 6 8 9 9 10 12 11 12 12 12 12 11
3 3 4 3 3 3 3 4 3 2 2 2 2 1 2 3 1 2 1 4 3 3 2 1 1 2 4 4 4 2 4 6 4 3 3 4 5 9 9 10 10 10 10 11 11 11 10 10 10 10 10 10 10 9 9 7 6 5 4 4 4 4 5 6 8 9 10 11 12 12 12 12 12 12
3 3 4 3 4 3 3 3 3 2 1 3 1 0 2 1 2 3 2 1 3 2 2 3 2 2 4 4 4 4 3 4 3 3 3 4 7 9 7 10 11 10 10 11 11 11 11 11 11 11 10 10 10 9 9 8 6 5 4 3 3 3 4 4 6 8 9 10 11 12 12 12 12 12
3 4 4 4 4 4 3 3 3 3 1 1 2 1 1 0 2 4 2 2 6 3 4 5 6 3 3 5 4 4 4 3 4 2 3 5 7 6 5 8 11 11 10 11 11 11 12 12 12 12 12 11 11 9 8 9 7 6 4 3 2 3 2 3 5 6 8 9 10 12 12 12 12 12
3 4 4 5 4 3 3 4 4 3 2 1 2 2 2 1 0 1 2 2 5 4 2 3 4 4 4 4 1 3 4 5 5 4 3 4 4 5 5 5 8 11 11 11 11 11 12 12 13 13 12 12 11 9 10 12 10 8 5 4 4 4 3 2 3 5 6 7 9 11 12 11 11 12
4 4 4 5 5 3 3 3 3 3 3 2 1 0 1 2 2 3 1 2 2 6 3 3 3 4 0 2 1 2 4 5 4 6 6 5 4 5 5 5 6 9 11 11 11 11 11 12 13 13 13 13 12 12 12 13 13 11 7 6 6 6 5 3 3 3 4 5 8 10 10 10 11 12
4 4 4 6 4 3 3 3 4 3 4 3 2 3 1 2 3 3 4 3 3 5 6 2 2 2 2 3 5 3 3 4 3 5 6 6 6 5 4 5 5 7 10 11 11 11 12 12 12 12 13 13 13 12 13 14 14 13 9 7 7 8 6 5 4 3 3 4 6 9 9 9 10 12
5 5 5 5 4 3 4 4 4 4 3 3 3 3 3 3 4 3 4 5 4 3 3 4 3 3 3 4 4 4 4 4 5 3 5 4 5 6 6 5 5 6 9 11 12 12 12 12 12 12 12 13 12 12 13 14 14 13 11 8 9 9 8 6 5 4 2 2 4 7 8 8 10 11
5 6 6 6 4 4 4 5 4 4 4 4 3 3 4 3 4 3 3 4 4 4 5 5 3 3 3 4 4 3 4 4 3 3 3 4 5 7 6 5 5 7 10 11 12 12 11 12 12 12 12 12 12 12 13 14 14 14 13 10 9 9 9 8 7 5 4 4 2 4 7 8 9 10
5 6 6 6 5 4 5 6 5 4 5 4 4 4 4 4 3 4 4 3 3 4 6 5 5 2 4 3 3 3 2 4 5 6 5 4 4 4 7 6 5 3 4 4 5 6 8 10 13 13 12 12 11 12 12 13 14 14 13 12 10 10 10 9 8 7 6 5 4 3 5 7 8 9
6 6 6 6 5 6 6 6 6 5 4 4 5 5 5 4 4 5 5 4 4 4 5 4 5 6 4 4 6 3 1 2 4 4 6 7 3 1 3 7 6 4 6 6 8 8 9 8 7 9 10 10 12 12 12 13 14 14 14 13 11 11 11 10 9 8 7 7 6 4 4 6 7 9
6 6 6 6 6 6 6 6 6 5 6 5 5 6 4 4 4 5 5 4 5 5 4 5 6 4 4 3 4 3 2 3 3 3 4 6 8 8 3 3 6 6 5 7 7 5 6 7 8 10 10 11 12 12 11 13 14 14 14 14 12 11 12 11 10 9 9 8 7 7 5 5 6 8
7 6 6 6 7 7 9 10 9 8 7 5 6 6 4 5 5 5 4 5 5 6 5 7 5 5 6 7 6 7 5 6 8 2 2 4 5 5 6 8 6 6 5 4 5 6 4 6 6 5 6 6 7 9 11 10 12 14 13 13 13 12 12 12 12 11 10 9 9 8 7 6 6 7
7 7 7 7 11 12 12 12 12 12 12 11 8 7 5 6 5 5 5 5 6 5 6 7 6 6 7 8 7 6 5 4 3 4 3 4 6 4 6 6 6 2 1 2 6 7 4 4 7 5 7 7 4 6 5 7 8 10 12 13 13 13 12 12 12 12 11 10 9 9 8 7 5 5
8 6 6 6 8 9 10 10 13 13 13 13 14 14 13 9 6 6 6 7 5 5 6 6 5 6 8 9 7 6 7 4 4 5 4 5 4 4 5 8 9 1 3 2 2 8 3 2 6 8 7 7 6 6 8 11 12 14 13 13 12 12 12 12 13 13 12 11 10 9 8 7 6 4
7 7 6 6 5 6 7 7 7 9 12 14 14 14 14 14 12 10 8 8 6 5 7 7 8 6 7 9 7 7 4 6 4 5 4 5 5 6 5 4 6 4 1 2 3 9 6 2 5 8 9 6 6 7 10 13 13 13 14 13 13 12 12 12 13 13 12 11 10 9 8 7 5 4
8 7 6 7 6 6 10 9 7 6 7 10 13 13 13 12 13 15 15 14 11 7 6 7 9 8 7 7 9 5 3 2 5 4 4 4 4 5 6 7 6 9 2 2 3 7 9 1 5 8 10 6 5 7 9 13 13 13 14 13 12 12 11 11 12 13 12 12 11 10 9 7 5 4
8 8 7 7 8 7 6 6 7 6 6 7 6 6 6 6 9 12 15 17 17 13 10 9 10 10 5 10 10 7 3 4 7 6 7 5 5 6 8 6 6 8 2 4 4 7 12 2 4 7 10 5 6 7 10 13 13 13 13 13 13 12 11 11 12 13 13 12 11 10 9 8 7 5
8 8 8 8 9 8 7 7 8 8 8 7 7 6 7 7 8 6 6 7 8 8 9 10 12 12 9 10 11 10 5 7 9 7 7 5 5 6 4 4 6 8 4 4 3 6 10 1 2 7 8 7 8 7 8 12 13 13 13 12 12 12 11 11 12 13 13 12 11 10 9 8 7 7
7 7 7 7 8 8 7 10 13 11 8 6 7 8 8 9 8 8 9 11 9 9 8 9 10 10 11 12 11 9 7 6 6 3 1 2 4 6 6 8 7 7 3 5 5 4 7 6 3 7 7 4 8 9 7 10 12 12 12 12 11 11 11 11 12 13 13 12 12 11 10 9 8 7
5 4 5 6 7 7 8 11 12 13 9 6 7 8 9 9 8 9 7 8 13 15 15 15 15 15 15 15 15 14 13 9 5 2 4 8 8 7 9 8 6 8 5 2 5 4 7 7 3 7 6 4 6 8 8 7 6 9 10 10 10 11 11 11 12 13 13 13 12 11 10 10 8 7
5 7 10 9 7 8 9 12 12 12 7 6 8 8 9 10 10 10 7 5 7 12 14 15 16 15 16 16 16 16 16 16 6 5 9 11 6 8 7 9 8 8 4 6 5 2 8 7 3 5 5 4 5 6 7 6 4 4 6 8 9 10 10 11 12 13 13 13 12 12 11 10 8 5
4 6 7 11 11 9 9 11 11 12 7 7 7 8 7 9 10 10 6 5 7 6 5 6 5 7 9 9 8 10 15 15 8 8 11 9 7 10 10 9 8 9 6 6 7 5 5 3 4 3 4 4 6 4 4 5 5 3 3 4 5 8 9 11 11 12 13 13 13 12 12 12 10 5
5 4 4 5 7 11 13 14 14 12 8 7 7 5 7 8 12 7 5 6 7 5 4 5 4 5 4 5 5 5 7 7 7 9 9 9 8 9 10 9 8 10 6 2 6 6 4 3 6 4 6 6 6 3 2 5 4 4 3 3 5 6 7 8 8 12 12 12 13 13 13 13 11 6
6 7 7 6 7 12 11 10 9 8 7 6 7 6 7 8 8 6 3 4 5 4 5 5 6 6 5 5 6 6 7 7 7 7 9 9 10 10 10 10 10 10 11 6 8 4 6 4 5 1 3 3 5 6 4 3 5 5 5 5 6 5 4 6 4 6 9 11 12 13 13 14 15 10
4 5 5 5 6 9 10 10 9 9 6 5 3 7 10 13 14 10 6 4 5 5 6 7 7 7 7 7 6 7 7 8 8 9 9 9 10 10 11 11 11 11 12 5 15 9 7 6 8 7 4 3 8 5 7 7 7 5 3 5 6 6 5 5 5 7 6 7 7 9 10 13 14 16
4 5 5 6 10 13 13 12 11 9 10 7 6 10 10 10 11 8 5 5 5 5 6 6 7 7 6 7 7 6 7 7 8 9 9 8 9 10 11 12 12 12 12 7 7 7 7 6 3 6 9 6 8 8 6 7 8 1 3 6 6 6 5 5 7 8 7 7 7 8 10 11 14 13
4 4 5 6 11 13 12 11 10 10 8 7 11 11 11 10 7 4 5 4 5 5 5 6 6 7 6 6 7 8 8 9 8 9 9 9 9 9 9 10 12 12 12 11 8 7 7 9 8 6 8 9 9 10 11 9 9 9 10 3 4 6 6 7 8 7 6 6 6 7 6 7 8 8
5 8 12 12 12 12 12 12 9 7 8 11 10 10 10 8 4 5 5 6 5 6 7 7 7 7 8 8 9 9 8 8 6 5 6 7 8 8 9 9 10 10 8 8 9 9 9 10 11 8 7 8 9 11 9 12 9 8 5 6 9 6 7 7 8 8 8 6 8 8 11 11 9 9
11 12 13 13 12 11 10 7 4 4 6 8 10 11 8 4 5 5 5 6 6 8 7 7 8 8 7 8 7 6 6 6 8 6 7 7 8 7 7 8 9 9 9 9 9 9 9 10 10 9 9 9 9 11 11 10 11 10 7 8 11 7 5 7 8 8 7 8 9 10 10 8 8 9
7 9 9 8 11 10 12 12 10 8 7 7 6 5 4 5 5 6 6 6 7 7 7 7 7 7 6 5 5 7 7 8 8 6 8 8 9 6 6 7 10 9 7 6 8 8 9 10 9 8 10 11 9 11 11 8 12 12 10 8 7 10 3 4 7 7 8 8 6 7 5 5 7 9
6 7 8 9 6 5 4 4 4 4 4 5 5 5 5 5 5 6 8 8 6 7 7 8 7 7 7 7 7 7 7 8 8 6 7 8 9 7 6 6 9 9 8 6 6 7 9 9 9 8 10 11 12 11 7 9 12 12 11 9 8 10 10 9 8 8 6 4 4 8 8 8 9 9
5 5 5 6 7 6 6 6 6 5 5 5 4 5 6 5 5 5 5 6 6 6 6 7 7 8 7 7 7 7 8 8 8 6 7 8 8 7 6 9 10 8 9 9 7 6 6 7 7 9 10 10 11 12 11 12 12 9 10 11 10 12 11 8 8 7 5 5 8 7 8 9 9 9
3 6 6 7 7 7 7 7 6 7 7 6 6 5 6 6 6 6 6 6 7 6 7 7 7 8 7 8 8 7 9 9 8 7 7 8 7 7 8 9 10 8 7 8 7 8 6 5 5 7 8 9 9 10 11 12 14 10 10 10 10 11 10 6 7 7 9 9 9 9 8 10 10 9
8 8 8 9 9 10 10 9 10 11 10 10 9 9 9 7 7 7 6 7 7 7 7 7 7 7 7 8 8 8 9 9 9 7 6 7 7 8 8 9 10 8 7 8 8 7 5 5 5 6 6 6 8 9 13 14 11 13 11 11 10 11 11 8 7 7 8 8 6 9 11 9 9 9
8 8 8 8 9 9 9 9 9 10 10 10 10 10 9 9 10 10 10 11 10 8 8 7 7 7 7 8 8 8 8 8 9 8 8 7 7 8 7 9 9 9 8 9 9 6 4 5 4 7 9 9 8 12 14 15 19 11 11 12 10 10 10 8 6 6 7 8 9 9 10 12 11 10
7 7 7 7 7 8 8 8 8 8 8 9 10 9 9 9 9 9 10 11 9 9 9 9 8 8 8 8 8 8 8 8 9 8 8 7 7 8 8 9 9 9 9 9 7 7 4 6 5 6 7 9 10 12 17 3 12 18 11 11 11 9 10 8 6 7 8 10 9 10 11 11 12 10
6 7 7 8 8 8 8 8 9 9 9 9 9 9 9 9 9 10 10 10 10 9 10 9 9 9 8 8 8 8 8 8 8 8 8 8 8 8 8 9 9 8 8 9 7 7 5 6 7 7 7 10 10 12 14 13 7 8 15 13 11 10 6 6 6 9 9 7 10 11 9 10 13 10
5 6 6 7 8 9 8 8 8 8 9 9 9 9 10 10 10 10 9 9 10 10 10 9 9 10 10 10 9 9 8 7 7 8 8 8 8 8 9 9 9 9 8 10 8 7 6 7 7 7 8 9 11 12 11 12 14 11 7 14 12 10 8 7 9 8 8 8 9 8 8 9 5 4
4 4 3 4 4 6 8 8 8 8 8 8 9 9 10 10 10 10 10 11 11 11 10 10 10 10 9 9 10 11 10 9 9 8 9 9 9 9 9 9 9 10 8 10 10 8 6 8 7 8 9 11 12 12 9 9 10 9 9 9 15 14 12 8 10 10 9 9 6 5 9 6 8 5
4 5 4 3 3 4 5 7 8 8 8 8 8 9 8 9 10 9 10 11 11 11 10 10 10 10 10 10 10 10 11 11 11 10 10 10 11 11 12 11 10 9 9 11 11 10 9 8 9 14 13 10 8 4 6 10 14 15 12 11 12 18 20 16 13 10 11 7 7 9 10 10 9 5
4 4 4 4 4 4 5 5 6 7 8 8 8 9 9 9 9 13 12 12 10 10 9 10 10 10 10 11 11 11 11 11 11 11 11 11 12 11 11 9 9 9 9 11 12 11 8 2 6 7 7 7 6 8 11 12 14 15 13 11 8 10 18 21 20 18 14 9 7 8 8 7 3 6
3 4 5 4 4 4 5 5 5 5 6 8 8 8 8 9 8 9 8 9 9 9 9 9 8 9 9 9 9 10 10 11 11 11 12 11 11 12 11 10 10 11 11 11 11 9 9 6 4 5 6 7 9 9 12 13 13 12 13 11 11 7 7 13 18 22 23 22 18 15 12 8 5 5
3 3 4 5 5 5 5 5 5 5 5 6 7 7 7 8 9 9 8 9 9 9 9 8 8 9 10 10 10 10 9 10 11 11 12 12 12 12 11 11 11 10 9 9 10 9 9 9 9 9 9 11 9 9 12 12 13 12 12 13 10 6 9 5 5 10 14 19 23 23 20 16 15 18
3 3 4 4 5 5 5 5 5 5 5 6 7 7 7 8 9 9 9 10 10 10 9 7 8 9 9 9 10 11 11 11 11 11 11 11 11 9 9 11 12 11 10 9 9 10 8 8 8 7 8 10 10 10 12 12 13 11 11 12 14 12 8 4 6 8 9 10 16 21 21 23 24 25
Wind_Direction
289 304 305 283 285 300 298 297 303 276 75 137 159 157 144 161 91 349 346 289 275 307 346 13 302 326 295 277 279 278 267 269 271 268 260 261 263 265 262 262 263 260 258 255 253 256 254 250 256 266 270 274 275 278 279 287 296 305 321 335 347 352 351 346 343 345 351 354 351 348 345 344 343 344
268 284 303 303 305 291 294 281 279 266 208 198 194 177 146 135 131 174 276 282 219 266 310 211 280 327 329 320 317 283 281 278 278 267 260 261 262 267 276 274 270 266 259 256 252 253 254 253 257 263 266 269 272 272 271 268 274 287 304 314 330 344 345 345 339 339 345 349 349 347 344 343 343 343
250 269 277 291 291 288 293 292 288 293 215 226 208 150 133 147 137 152 130 343 287 178 269 293 258 273 304 317 320 319 320 322 312 288 275 270 274 285 282 278 276 271 263 258 254 251 252 254 255 257 259 261 265 263 265 264 258 265 274 282 310 322 335 337 333 334 338 344 347 346 344 343 343 344
245 252 263 267 267 282 313 305 288 278 271 211 178 154 136 170 148 132 127 186 266 253 224 277 295 286 291 308 316 321 338 334 348 321 297 285 292 292 282 281 277 277 268 260 255 251 250 251 253 254 255 257 258 256 259 265 254 251 241 229 254 287 300 319 324 327 332 340 343 347 344 344 345 345
245 244 248 260 260 254 281 279 282 278 258 151 149 146 131 122 115 126 154 239 282 298 257 255 277 307 335 317 356 335 328 330 328 326 288 285 282 283 280 281 281 276 271 263 256 252 250 250 251 253 255 254 254 250 256 268 267 257 238 218 238 244 251 280 304 315 329 336 343 345 345 344 345 346
238 234 240 257 265 252 239 262 263 243 262 254 271 192 165 197 199 179 149 215 218 282 307 307 294 293 268 277 294 272 304 310 321 322 318 306 280 278 284 281 277 267 267 265 259 255 252 252 251 253 255 255 255 257 260 264 268 266 250 228 226 240 235 230 266 306 320 338 343 343 343 340 343 346
232 233 235 247 249 241 243 258 253 238 236 223 211 244 195 212 226 194 187 176 245 269 281 237 276 265 293 214 275 280 258 273 281 293 299 302 307 304 292 284 277 267 260 261 260 255 253 252 253 253 254 256 256 256 258 261 265 266 257 233 226 235 236 221 234 261 302 328 336 337 337 335 337 342
223 227 235 244 242 246 253 265 265 263 244 224 224 230 246 213 238 217 181 197 202 230 256 288 244 264 267 280 258 256 270 273 291 268 282 293 295 301 303 293 287 279 267 263 260 256 252 251 252 253 254 255 255 255 257 259 261 263 258 237 228 232 233 225 215 217 247 277 324 328 324 324 331 337
223 227 227 238 236 240 253 267 263 260 256 247 230 239 250 241 243 243 207 208 194 211 246 272 266 245 252 248 264 253 273 299 284 278 283 293 298 300 294 291 279 279 276 268 267 263 258 258 257 255 255 256 254 252 253 256 259 261 261 247 229 228 231 226 215 205 206 216 262 317 310 313 321 328
228 229 231 235 226 221 227 245 253 255 253 261 253 250 254 251 254 256 260 223 211 214 240 240 290 300 262 303 275 255 223 271 298 308 297 298 296 300 316 308 303 298 290 292 278 265 263 261 260 261 260 258 258 256 253 255 258 259 261 255 236 230 230 227 219 205 198 204 217 271 298 301 312 319
233 232 235 235 226 224 224 233 236 234 241 242 252 247 249 247 242 256 259 255 241 233 249 260 236 262 265 230 275 280 208 227 227 261 312 310 283 270 268 301 306 311 305 278 261 263 263 261 259 257 254 254 255 256 254 256 256 258 257 257 242 230 229 227 222 212 200 198 204 215 257 286 301 311
238 236 238 240 235 229 230 227 233 217 230 225 242 246 243 251 247 255 261 265 259 263 264 260 276 263 285 303 264 302 342 309 294 212 233 276 297 309 303 254 291 301 305 304 310 283 272 276 267 270 268 259 256 254 257 256 257 257 255 254 247 232 227 223 221 216 205 200 202 209 228 254 285 299
236 239 237 239 239 235 236 231 232 229 222 225 240 249 223 238 238 255 259 253 264 265 264 281 277 288 293 279 286 293 281 262 265 258 166 261 268 282 308 299 277 244 260 284 287 289 269 279 275 266 278 264 248 253 245 258 257 256 253 249 247 238 226 219 217 217 210 202 202 208 216 228 250 281
234 234 234 237 235 235 239 240 241 242 243 240 233 244 230 227 229 237 246 252 243 245 257 257 266 279 274 273 266 264 262 264 290 301 265 269 286 316 293 286 271 238 188 280 296 281 262 244 280 275 269 273 243 261 239 240 240 250 247 245 243 238 229 218 213 214 212 205 204 206 212 225 237 256
242 242 237 237 245 243 240 241 242 243 243 246 248 249 248 235 215 231 243 249 236 234 242 255 254 249 265 270 265 259 274 279 261 267 274 267 292 290 302 301 306 286 177 219 275 291 272 213 271 279 267 269 261 246 249 249 243 246 251 248 241 235 228 219 212 211 211 207 204 204 208 218 228 245
237 242 243 241 238 237 236 237 240 239 239 240 244 246 248 250 247 242 233 245 252 229 240 252 248 246 252 267 274 273 265 270 271 254 253 258 261 275 272 260 264 263 97 305 293 287 282 187 254 278 276 270 255 249 251 252 247 246 248 246 242 234 227 218 212 210 209 208 205 204 203 207 215 233
231 232 237 246 241 244 243 241 239 240 249 245 240 242 248 252 241 238 240 238 237 242 230 242 255 239 246 260 265 244 227 209 257 270 260 247 242 236 254 257 269 284 182 235 279 279 283 171 275 278 279 274 268 268 259 255 253 251 249 248 244 236 226 216 212 209 207 206 205 202 200 200 200 218
227 225 228 235 245 243 243 241 242 242 242 250 256 254 245 243 242 235 233 236 237 235 236 239 248 252 205 244 256 255 200 227 254 259 263 261 268 263 252 254 257 271 144 261 280 286 284 244 230 268 280 282 278 268 266 267 264 257 252 249 245 239 227 214 209 206 205 205 205 202 198 194 197 203
230 227 225 227 237 243 239 238 234 238 243 243 248 253 257 250 248 243 234 226 224 223 222 230 238 251 244 241 251 258 229 227 243 240 251 251 253 268 283 291 255 275 242 195 176 257 281 281 237 260 275 293 285 274 274 267 263 259 255 250 245 239 229 214 206 202 202 202 203 202 195 193 193 195
235 233 228 230 239 242 243 245 238 236 239 239 249 256 259 263 261 255 241 235 231 226 220 219 230 238 243 242 246 251 245 239 247 250 294 303 273 281 291 283 292 284 268 163 186 249 275 268 222 274 274 272 277 282 280 273 262 256 254 251 246 237 226 214 203 199 199 200 201 199 197 196 194 193
263 256 240 237 245 250 250 250 243 242 236 248 251 255 261 263 270 270 268 234 235 238 239 242 246 252 260 266 270 272 271 260 271 306 306 275 269 278 282 279 279 271 279 234 193 225 264 272 237 279 278 253 268 273 274 271 265 255 256 254 249 237 225 213 203 199 198 199 199 197 195 191 191 190
270 263 259 246 238 244 252 252 247 245 224 233 243 248 257 267 269 271 270 271 252 233 236 242 247 253 260 263 267 270 269 261 234 208 249 257 269 270 257 270 265 278 277 256 162 220 245 272 255 270 288 314 249 255 258 267 274 265 266 264 253 242 225 213 207 201 199 199 197 195 190 187 178 183
277 283 280 273 267 263 265 262 255 251 226 233 235 238 246 259 261 261 267 255 266 270 265 258 247 259 250 251 251 258 260 262 238 212 236 256 247 257 262 261 281 288 263 236 166 208 268 214 254 196 315 305 276 257 269 280 270 252 250 261 261 244 226 219 210 205 204 201 198 193 187 183 169 181
314 304 291 296 294 285 287 294 298 300 290 256 252 235 237 248 260 258 247 241 241 258 257 266 261 257 257 247 238 243 253 251 228 220 221 229 230 242 256 254 245 254 257 259 173 195 263 190 261 185 210 266 289 289 316 292 256 247 228 237 251 243 221 222 222 217 211 207 203 196 190 183 175 182
321 321 318 308 348 22 26 19 5 347 324 279 272 264 251 244 276 338 303 286 300 293 287 283 281 272 262 250 237 239 240 243 238 223 217 217 216 222 241 252 252 255 253 229 177 191 253 218 256 178 270 204 251 290 277 276 270 237 226 212 245 240 196 228 222 223 218 216 211 203 196 188 188 189
317 309 313 305 27 4 354 339 335 328 339 318 253 257 260 283 295 288 275 274 269 264 268 268 270 271 268 263 250 240 237 237 237 235 228 217 217 219 225 234 245 259 265 209 179 206 225 266 242 257 247 234 272 238 283 284 264 249 234 229 232 238 197 225 218 231 214 207 211 209 204 196 197 202
312 313 317 314 334 329 322 319 311 303 297 296 261 261 267 267 271 273 260 248 242 245 249 255 262 265 263 268 269 258 253 245 238 241 238 232 219 221 227 231 234 244 257 256 186 208 205 245 206 211 255 240 264 279 258 271 279 342 294 236 237 234 217 209 224 230 214 209 217 192 198 206 208 208
303 306 311 308 310 304 298 298 306 306 295 268 277 278 274 274 274 261 263 245 240 242 244 246 252 257 255 258 265 263 255 255 244 240 241 240 233 229 232 232 235 241 247 253 241 218 215 240 250 226 232 251 256 261 271 260 255 262 268 261 231 238 219 210 231 236 225 209 193 188 186 210 211 198
314 300 291 287 285 282 281 277 276 280 278 276 272 271 270 267 247 243 243 253 249 251 249 249 252 256 253 249 256 263 268 272 269 258 257 249 247 243 243 242 239 239 237 240 239 234 230 233 246 243 235 234 240 251 249 261 269 268 238 278 282 241 219 222 226 230 231 209 210 198 207 209 198 188
306 299 294 284 274 267 263 265 257 262 268 274 278 276 266 247 249 250 254 256 250 254 259 258 259 262 268 265 268 272 269 267 265 255 255 251 252 246 253 263 259 246 238 237 233 233 232 238 241 243 249 247 237 253 251 261 265 263 250 235 259 296 232 211 223 233 230 226 220 218 228 213 205 173
324 315 312 303 295 281 278 273 270 267 275 281 277 265 247 230 232 238 235 245 254 262 267 268 267 271 274 287 295 282 278 271 267 246 257 258 261 247 244 247 263 268 252 231 229 227 232 238 241 233 246 257 255 245 257 252 261 263 258 238 227 244 230 174 228 228 226 234 247 252 258 228 223 208
313 311 304 301 307 314 314 294 274 268 255 262 278 279 273 264 254 252 253 257 255 260 261 268 276 279 277 276 271 275 270 268 269 261 256 257 263 253 241 247 258 263 270 253 243 236 229 234 240 237 234 245 256 261 247 243 249 254 258 251 238 248 243 227 220 228 212 205 247 246 235 225 226 221
315 321 329 343 345 354 344 336 329 322 311 298 281 283 285 274 265 260 256 259 259 257 259 264 268 273 276 275 274 274 276 271 270 261 260 255 255 258 228 244 255 259 266 269 260 253 229 242 236 239 241 243 243 251 259 265 256 246 252 251 247 251 247 232 221 220 137 160 225 238 247 237 238 233
315 357 354 358 351 348 347 338 331 327 325 322 316 309 291 283 281 275 267 263 266 263 260 267 272 273 275 277 276 274 271 277 271 256 238 257 241 246 241 248 255 253 251 261 264 267 263 233 236 249 251 253 252 243 241 248 263 263 248 251 247 257 259 237 226 197 181 199 208 227 241 248 235 231
19 8 7 7 6 1 357 360 359 353 349 351 347 344 338 323 305 289 283 281 278 276 272 269 265 265 267 270 272 271 270 271 274 269 245 243 246 242 250 253 263 264 261 264 263 262 259 261 263 278 277 277 282 265 216 220 251 255 263 258 254 254 260 233 216 205 195 212 189 220 241 250 252 232
21 16 10 10 5 357 355 354 352 350 347 346 343 341 341 343 347 343 342 336 321 310 300 291 283 277 272 269 269 268 267 267 269 268 266 251 250 252 251 255 262 268 261 261 265 264 244 255 248 268 283 293 291 293 287 200 207 236 248 259 253 252 257 254 221 204 196 211 210 215 234 242 247 242
19 12 10 6 2 360 349 343 342 340 340 339 334 332 331 334 336 334 329 322 328 334 329 319 309 301 294 284 277 269 267 266 269 267 265 262 254 255 262 263 258 259 262 259 257 261 232 249 225 235 262 274 276 277 277 305 224 227 225 242 252 244 248 245 218 222 218 211 215 211 224 232 242 244
25 15 12 4 359 354 345 342 339 338 336 333 327 324 329 332 330 330 328 327 331 330 327 325 322 319 316 304 287 275 267 264 265 270 266 264 262 261 257 265 270 266 267 271 259 253 230 234 235 230 226 252 266 269 282 289 290 253 204 220 243 249 229 230 235 234 235 216 224 224 221 239 242 250
33 26 15 4 354 348 346 344 340 334 330 326 329 334 335 330 329 329 328 330 330 325 321 321 327 328 320 320 315 296 280 275 272 272 274 272 268 271 272 269 273 272 270 273 267 253 233 228 235 227 224 235 246 256 263 275 272 279 238 207 225 249 239 214 240 235 233 228 235 243 240 242 303 294
28 31 21 9 359 352 346 338 334 329 326 331 334 334 329 329 329 326 331 331 326 324 324 325 324 320 323 332 337 337 331 315 302 293 288 285 280 274 273 275 272 276 279 275 277 264 233 235 227 231 229 231 241 247 259 266 279 278 268 254 214 219 239 228 236 237 239 231 220 216 246 246 245 236
7 9 2 353 346 344 342 337 334 329 328 330 331 329 327 325 322 327 328 323 326 325 324 326 323 326 337 347 349 347 337 332 329 323 316 304 290 281 271 269 271 270 272 274 273 272 258 238 229 221 228 242 248 295 293 278 273 275 270 259 220 218 231 233 239 237 243 229 189 221 238 236 240 236
1 356 339 339 332 331 331 328 336 332 329 329 328 326 324 321 321 322 321 322 321 321 321 320 333 350 348 347 343 340 333 326 323 321 324 324 318 305 286 274 269 272 264 267 271 269 277 231 234 236 239 242 250 244 251 254 263 270 271 273 275 223 225 234 238 244 244 228 205 230 238 255 214 260
4 350 336 327 324 321 321 315 315 324 327 327 321 320 317 319 317 322 321 321 321 322 319 326 345 342 338 336 335 332 325 319 320 320 318 314 311 307 307 302 291 283 277 275 275 282 285 275 236 234 239 233 238 232 250 252 254 259 268 270 266 271 251 235 238 243 249 248 236 228 217 195 141 230
358 344 318 313 313 309 305 306 303 308 315 317 315 314 317 320 322 321 321 319 319 318 319 331 341 338 332 329 325 319 315 314 315 312 308 307 304 302 299 295 291 288 287 284 291 289 292 291 289 281 278 269 255 243 245 250 252 251 260 270 276 265 265 269 247 251 256 257 255 254 255 252 241 248
338 320 308 301 300 300 297 302 308 313 315 319 318 318 320 322 321 320 320 319 317 317 320 334 331 326 323 323 323 318 316 313 305 302 304 302 300 298 296 294 292 290 285 283 285 286 280 277 275 268 257 260 260 248 247 244 253 262 261 262 272 271 268 249 257 257 250 258 247 236 240 243 250 258